Location: Biharia
(46.4333°N, 22.8000°E)
Time: 18:45:35
(UTC+00:00)

FENGYUN 1C DEB - Pass Details

Date: 18 August 2022
Orbit: 796 x 915 km, 98.9° (Epoch: 24 September)

Event Time Altitude Azimuth Distance (km) Brightness Sun altitude
Rises 21:47:36 0° 32° (NNE) 3,399 ? -29.8°
Reaches altitude 10° 21:51:25 10° 59° (ENE) 2,432 ? -30.0°
Enters shadow 21:52:55 13° 75° (ENE) 2,236 ? -30.0°
